sat.trackr.live / text

‹ back to catalog

STARLINK-36668

NORAD 68177 · 2026-050L

PAYLOAD ACTIVE UNKNOWN

§ Identity

Operator
Country
US
Launch date
2026-03-14
Launch site
AFETR
Launch vehicle
Mass (kg)
RCS (m²)

Purposes: comms

External: N2YO · Heavens-Above · Gunter

§ Orbital elements

Epoch: 2026-05-25T01:10:23.389248Z

Period
93.37 min
Inclination
53.1594°
Eccentricity
0.0001143
Mean motion
15.42182565 rev/d
Perigee alt
438.9 km
Apogee alt
440.4 km
Semi-major
6,817.8 km
B*
6.5441e-4
RAAN
271.4060°
Arg perigee
73.0515°
Mean anomaly
287.0616°
Rev number
1,238

§ Raw data

STARLINK-366681 68177U 26050L   26145.04888182  .00028192  00000+0  65441-3 0  99932 68177  53.1594 271.4060 0001143  73.0515 287.0616 15.42182565 12381

JSON: /api/v1/satellites/68177 · /tle

For live sub-satellite position, see the globe view (requires WebGL).

§ Visibility from observer

Set your observer location to see the next 7 days of passes ≥ 10°. The values pass through the URL so the page stays shareable.

No JS? Fill the form by hand. The geolocation button needs JavaScript.